This is the latest recevied weather packets stored in our database for station/object KBTL-WX. If no packets are shown the sender has not sent any weather packets the latest 10 day(s).
| Time | Temp. | Humidity | Pressure | Rain* | Wind** | Luminosity | Snow |
|---|---|---|---|---|---|---|---|
| 1777743913 | 7.78° C | 41% | 986 hPa | 0 mm | - | - | - |
| 1777743028 | 7.78° C | 40% | 985.9 hPa | 0 mm | - | - | - |
| 1777742114 | 8.33° C | 40% | 986 hPa | 0 mm | - | - | - |
| 1777741233 | 7.78° C | 40% | 986 hPa | 0 mm | - | - | - |
| 1777740314 | 7.78° C | 42% | 985.9 hPa | 0 mm | - | - | - |
| 1777739432 | 7.22° C | 41% | 985.6 hPa | 0 mm | - | - | - |
| 1777738514 | 7.22° C | 41% | 985.5 hPa | 0 mm | - | - | - |
| 1777737638 | 6.67° C | 41% | 985.5 hPa | 0 mm | - | - | - |
| 1777736713 | 6.67° C | 45% | 985 hPa | 0 mm | - | - | - |
| 1777735828 | 6.11° C | 50% | 985.4 hPa | 0 mm | - | - | - |
| 1777734914 | 5.56° C | 50% | 985.4 hPa | 0 mm | - | - | - |
| 1777734039 | 5.56° C | 50% | 985.4 hPa | 0 mm | - | - | - |
| 1777733114 | 5.56° C | 56% | 985.5 hPa | 0 mm | - | - | - |
| 1777732227 | 5° C | 63% | 985.9 hPa | 0 mm | - | - | - |
| 1777731314 | 4.44° C | 63% | 985.9 hPa | 0 mm | - | - | - |
| 1777730435 | 3.89° C | 63% | 985.9 hPa | 0 mm | - | - | - |
| 1777729514 | 3.89° C | 71% | 985.4 hPa | 0 mm | - | - | - |
| 1777728632 | 3.33° C | 71% | 985.4 hPa | 0 mm | - | - | - |
| 1777727714 | 2.78° C | 71% | 985.4 hPa | 0 mm | - | - | - |
| 1777726834 | 2.78° C | 71% | 985.4 hPa | 0 mm | - | - | - |
| 1777725924 | 2.22° C | 78% | 984.4 hPa | 0 mm | - | - | - |
| 1777725031 | 1.67° C | 77% | 985.3 hPa | 0 mm | - | - | - |
| 1777724114 | 1.11° C | 77% | 985.3 hPa | 0 mm | - | - | - |
| 1777723240 | 1.11° C | 77% | 985.3 hPa | 0 mm | - | - | - |
| 1777722313 | 0.56° C | 82% | 984.5 hPa | 0 mm | - | - | - |
* Rain latest hour (hover to see other rain measurements)
** Current wind speed in m/s (hover to see current wind gust speed)